Location: Rochester
(43.1610°N, 77.6109°W)
Time: 07:29:26
(UTC-05:00)

CUTE 1.7 + AOD 2 - Pass Details

Date: 21 October 2021
Orbit: 592 x 610 km, 97.6° (Epoch: 29 November)

Event Time Altitude Azimuth Distance (km) Brightness Sun altitude
Rises 06:34:03 0° 356° (N) 2,884 ? -11.2°
Reaches altitude 10° 06:36:46 10° 338° (NNW) 1,975 ? -10.7°
Maximum altitude 06:39:42 18° 295° (WNW) 1,499 ? -10.2°
Enters shadow 06:42:30 11° 253° (WSW) 1,929 ? -9.7°
